Powrót do katalogu

STARLINK-36402

AktywnyŁącznośćVLEO
NORAD 68966·PAYLOAD·🇺🇸 United States

Wystrzelony May 1, 2026 z Cape Canaveral Space Force Station

Loading…

Następne Przeloty (najbliższe 24 godziny)

TLE

ŚwieżeSource: CelesTrak SupGP

Epoka: Sep 15, 2026, 02:52 UTC

1 68966C 26099R   26258.11993056  .00001463  00000+0  43221-4 0  2585
2 68966  53.1570 100.8630 0001283  90.5451 121.9267 15.34382893    19

Śledź STARLINK-36402 w czasie rzeczywistym z AllMySat

Download on the App Store